THOR AGENA B DEB, 2153

Orbit data source: Space-Track

THOR AGENA B DEB, 2153 is space debris in LEO originally from a launch on Mon, 29 Nov 1965 UTC launched from the Air Force Western Test Range (AFWTR). Debris objects in space refer to the collection of defunct objects orbiting the Earth. Examples of debris include non-operational satellites, rocket bodies, and fragments generated from explosions, collisions, or faulty payload assembly.

Loading next visibility...
Identifier
2153, 1965-098J
Orbit
LEO
Country
Flag of USUS
Related business
Manufacturer
Unknown
Mission
Spacecraft
Bus & Motor
Unknown
Mass
~1 kg wet, ~1 kg dry
Launch date (UTC)
1965-11-29 (60 years ago)
Launch vehicle
Unknown
Launch site
Air Force Western Test Range (AFWTR)
Object type
Payload
Rocket body
Debris
Shape & HBR
Unknown
Radar Cross Section
Small (<0.1 m²)

Expand to show TLE details & history
Last TLE update: 18 hours ago

TLE from 18 hours ago
0 THOR AGENA B DEB
1 02153U 65098J   26038.44324438  .00000919  00000-0  29366-3 0  9998
2 02153  79.7431 186.2177 1281000 315.0293  86.7876 12.38988616670963
Epoch: 2026-02-07T10:38Z
TLE epoch observation values (Epoch: 2026-02-07T10:38:16.314Z)
Latitude
55.17917°
Longitude
-95.91192°
Altitude
1,592.313 km
Speed
7.045 km/s
True Right ascension
13h 24m 53s
True Declination
55° 02' 05"
Sunlit
Object was in daylight at epoch
Visualization orbit readout
Latitude
Unknown
Longitude
Unknown
Altitude
Unknown
Speed
Unknown
Apparent Right ascension
Unknown
Apparent Declination
Unknown
Sunlit
N/A
Visualization observer readout
Local Sidereal Time
06:38:56
Azimuth
Unknown
Elevation
Unknown
Doppler factor
Unknown
Orbital elements
Apogee altitude
2,518.563 km
Perigee altitude
498.056 km
Semi-major axis
7,886.447 km
Eccentricity
0.1281
Inclination
79.7431°
RAAN
186.2177°
Arg. of periapsis
315.0293°
True anomaly
101.4157°
Mean anomaly
86.7876°
Eccentric anomaly
94.10833°
Mean motion
3.099 °/min
Orbital period
116.17 mins
BSTAR
0.00029366
Loading maneuver chart data...
Computing Atmospheric mass density...
Loading historical data...
Loading historical data...
Loading historical data...
Loading historical data...
Loading historical data...
Loading historical data...
Loading historical data...

Documentation

Showing up to 5 results
|